Location: Plymouth Junction
(43.2275°N, 93.1308°W)
Time: 00:42:03
(UTC+00:00)

ACS3 Solar Sail - Visible Passes

Search period start: 08 October 2024 00:00
Search period end: 18 October 2024 00:00
Orbit: 962 x 1035 km, 97.4° (Epoch: 07 October)

Date Brightness Start Highest point End Pass type
(mag) Time Alt. Az. Time Alt. Az. Time Alt. Az.
08 Oct 3.1 00:36:56 13° E 00:40:21 20° ENE 00:44:46 10° NNE visible
08 Oct 1.9 02:22:05 54° S 02:23:35 76° W 02:29:58 10° NNW visible
08 Oct 4.4 04:07:14 11° W 04:08:29 11° W 04:10:23 10° WNW visible
09 Oct 2.5 01:09:06 25° ESE 01:11:38 34° ENE 01:17:13 10° N visible
09 Oct 2.8 02:54:15 40° WSW 02:55:22 43° W 03:01:24 10° NNW visible
10 Oct 1.9 01:41:15 43° SE 01:43:04 58° ENE 01:49:15 10° N visible
10 Oct 3.6 03:26:24 24° WSW 03:27:19 24° W 03:32:22 10° NW visible
11 Oct 3.2 00:28:14 12° E 00:31:30 18° ENE 00:35:34 10° NNE visible
11 Oct 1.8 02:13:24 61° S 02:14:38 84° WSW 02:21:00 10° NNW visible
11 Oct 4.3 03:58:33 13° W 03:59:26 13° W 04:02:13 10° WNW visible
12 Oct 2.6 01:00:22 24° E 01:02:43 30° ENE 01:08:05 10° N visible
12 Oct 2.6 02:45:31 45° WSW 02:46:21 48° W 02:52:28 10° NNW visible
13 Oct 2.0 01:32:28 42° ESE 01:34:04 52° ENE 01:40:09 10° N visible
13 Oct 3.5 03:17:37 27° W 03:18:13 27° W 03:23:30 10° NW visible
14 Oct 3.3 00:19:25 11° E 00:22:33 16° ENE 00:26:11 10° NNE visible
14 Oct 1.7 02:04:34 66° SSE 02:05:35 88° ENE 02:11:55 10° NNW visible
14 Oct 4.2 03:49:43 15° W 03:50:14 15° W 03:53:40 10° NW visible
15 Oct 2.8 00:51:30 22° E 00:53:40 27° ENE 00:58:49 10° N visible
15 Oct 2.4 02:36:39 52° WSW 02:37:12 54° W 02:43:23 10° NNW visible
16 Oct 2.1 01:23:33 40° ESE 01:24:57 46° ENE 01:30:54 10° N visible
16 Oct 3.3 03:08:42 30° W 03:08:59 30° W 03:14:28 10° NNW visible
17 Oct 3.4 00:10:28 10° E 00:13:27 14° ENE 00:16:35 10° NNE visible
17 Oct 1.7 01:55:36 69° SE 01:56:22 79° ENE 02:02:40 10° N visible
17 Oct 4.1 03:40:45 17° W 03:40:56 17° W 03:44:51 10° NW visible
